Kingstree, SC

3:49 AM EST on December 06, 2019 (GMT -0500)
Williamsburg County

Weather History for KCKI - October, 2019

Change the Weather History Date:

Monday, October 7, 2019

  Actual Average Record
Temperature  
Mean Temperature 70 °F -  
Max Temperature 77 °F 80 °F 86 °F (2012)
Min Temperature 64 °F 50 °F 42 °F (2010)
Cooling Degree Days 6    
Growing Degree Days 20 (Base 50)    
Moisture  
Dew Point 67 °F    
Average Humidity 95    
Maximum Humidity 100    
Minimum Humidity 78    
Precipitation  
Precipitation 0.00 in - - ()
Sea Level Pressure  
Sea Level Pressure 30.07 in    
Wind  
Wind Speed 1 mph ()    
Max Wind Speed 8 mph    
Max Gust Speed -    
Visibility 6.7 miles    
Events Rain    
Averages and records for this station are not official NWS values.
T = Trace of Precipitation, MM = Missing Value Source: Averaged Metar Reports

Daily Weather History Graph

Daily Weather History Graph

Search for Another Location

Airport or City:

Astronomy

Oct. 07, 2019 Rise Set
Actual Time 7:18 AM EDT 6:56 PM EDT
Civil Twilight 6:53 AM EDT 7:20 PM EDT
Nautical Twilight 6:24 AM EDT 7:49 PM EDT
Astronomical Twilight 5:55 AM EDT 8:18 PM EDT
Moon 3:57 PM EDT (10/7) 1:29 AM EDT (10/7)
Length of Visible Light 12h 27m
Length of Day
11h 38m
Waxing Gibbous, 69% of the Moon is Illuminated
Oct 7
Waxing Gibbous
Oct 13
Full
Oct 21
Last Quarter
Oct 27
New
Nov 4
First Quarter

Hourly Weather History & Observations

Time (EDT) Temp. Dew Point Humidity Pressure Visibility Wind Dir Wind Speed Gust Speed Precip Events Conditions
12:15 AM 66.2 °F 64.4 °F 94% 30.17 in 10.0 mi Calm Calm - N/A   Clear
12:35 AM 64.4 °F 64.4 °F 100% 30.16 in 10.0 mi Calm Calm - N/A   Clear
12:55 AM 64.4 °F 64.4 °F 100% 30.16 in 7.0 mi Calm Calm - N/A   Scattered Clouds
1:15 AM 64.4 °F 64.4 °F 100% 30.15 in 7.0 mi Calm Calm - N/A   Scattered Clouds
1:35 AM 64.4 °F 64.4 °F 100% 30.14 in 7.0 mi Calm Calm - N/A   Scattered Clouds
1:55 AM 64.4 °F 64.4 °F 100% 30.14 in 7.0 mi Calm Calm - N/A   Scattered Clouds
2:15 AM 64.4 °F 64.4 °F 100% 30.14 in 7.0 mi Calm Calm - N/A   Scattered Clouds
2:35 AM 64.4 °F 64.4 °F 100% 30.13 in 7.0 mi Calm Calm - N/A   Clear
2:55 AM 64.4 °F 64.4 °F 100% 30.13 in 7.0 mi Calm Calm - N/A   Mostly Cloudy
3:15 AM 64.4 °F 64.4 °F 100% 30.12 in 10.0 mi Calm Calm - N/A   Scattered Clouds
3:35 AM 64.4 °F 64.4 °F 100% 30.11 in 7.0 mi Calm Calm - N/A   Scattered Clouds
3:55 AM 64.4 °F 64.4 °F 100% 30.11 in 7.0 mi Calm Calm - N/A   Mostly Cloudy
4:15 AM 64.4 °F 64.4 °F 100% 30.10 in 7.0 mi Calm Calm - N/A   Mostly Cloudy
4:35 AM 66.2 °F 64.4 °F 94% 30.11 in 10.0 mi Calm Calm - N/A   Overcast
4:55 AM 66.2 °F 64.4 °F 94% 30.11 in 7.0 mi Calm Calm - N/A   Overcast
5:15 AM 66.2 °F 64.4 °F 94% 30.11 in 7.0 mi Calm Calm - N/A   Overcast
5:35 AM 66.2 °F 64.4 °F 94% 30.11 in 5.0 mi Calm Calm - N/A Rain Light Rain
5:55 AM 64.4 °F 64.4 °F 100% 30.11 in 7.0 mi Calm Calm - N/A   Overcast
6:15 AM 64.4 °F 62.6 °F 94% 30.11 in 7.0 mi Calm Calm - N/A   Mostly Cloudy
6:35 AM 64.4 °F 64.4 °F 100% 30.11 in 7.0 mi Calm Calm - N/A Rain Light Rain
6:55 AM 64.4 °F 64.4 °F 100% 30.11 in 7.0 mi Calm Calm - N/A   Overcast
7:15 AM 64.4 °F 64.4 °F 100% 30.10 in 7.0 mi Calm Calm - N/A   Overcast
7:35 AM 64.4 °F 64.4 °F 100% 30.11 in 7.0 mi Calm Calm - N/A   Overcast
7:55 AM 66.2 °F 64.4 °F 94% 30.12 in 5.0 mi Calm Calm - N/A   Overcast
8:15 AM 66.2 °F 64.4 °F 94% 30.12 in 7.0 mi Calm Calm - N/A   Overcast
8:35 AM 66.2 °F 64.4 °F 94% 30.11 in 7.0 mi Calm Calm - N/A   Mostly Cloudy
8:55 AM 68.0 °F 66.2 °F 94% 30.12 in 7.0 mi Calm Calm - N/A   Mostly Cloudy
9:35 AM 71.6 °F 69.8 °F 94% 30.11 in 7.0 mi Calm Calm - N/A   Overcast
10:15 AM 73.4 °F 69.8 °F 88% 30.10 in 7.0 mi ENE 4.6 mph - N/A   Mostly Cloudy
10:35 AM 73.4 °F 69.8 °F 88% 30.10 in 4.0 mi East 5.8 mph - N/A   Mostly Cloudy
10:55 AM 73.4 °F 69.8 °F 88% 30.10 in 7.0 mi East 8.1 mph - N/A   Overcast
11:35 AM 73.4 °F 69.8 °F 88% 30.10 in 7.0 mi East 3.5 mph - N/A   Overcast
11:55 AM 77.0 °F 69.8 °F 78% 30.09 in 5.0 mi ENE 6.9 mph - N/A   Haze
12:15 PM 77.0 °F 69.8 °F 78% 30.08 in 7.0 mi East 5.8 mph - N/A   Overcast
12:35 PM 77.0 °F 69.8 °F 78% 30.08 in 7.0 mi East 8.1 mph - N/A   Overcast
12:55 PM 75.2 °F 69.8 °F 83% 30.08 in 7.0 mi East 8.1 mph - N/A   Overcast
1:15 PM 73.4 °F 71.6 °F 94% 30.08 in 5.0 mi SE 5.8 mph - N/A Rain Light Rain
1:35 PM 73.4 °F 71.6 °F 94% 30.08 in 2.0 mi SE 5.8 mph - N/A Rain Light Rain
1:55 PM 71.6 °F 69.8 °F 94% 30.07 in 3.0 mi Calm Calm - N/A Rain Light Rain
2:15 PM 71.6 °F 71.6 °F 100% 30.05 in 5.0 mi Calm Calm - N/A   Overcast
2:35 PM 71.6 °F 71.6 °F 100% 30.05 in 2.5 mi Calm Calm - N/A Rain Heavy Rain
2:55 PM 71.6 °F 69.8 °F 94% 30.04 in 5.0 mi Calm Calm - N/A Rain Light Rain
3:15 PM 71.6 °F 69.8 °F 94% 30.04 in 7.0 mi Calm Calm - N/A Rain Light Rain
3:35 PM 71.6 °F 69.8 °F 94% 30.04 in 7.0 mi Calm Calm - N/A   Overcast
3:55 PM 71.6 °F 69.8 °F 94% 30.03 in 5.0 mi Calm Calm - N/A Rain Light Rain
4:15 PM 71.6 °F 69.8 °F 94% 30.02 in 2.5 mi Calm Calm - N/A Rain Light Rain
4:35 PM 71.6 °F 69.8 °F 94% 30.02 in 4.0 mi Calm Calm - N/A   Overcast
4:55 PM 71.6 °F 69.8 °F 94% 30.01 in 7.0 mi Calm Calm - N/A   Overcast
5:15 PM 71.6 °F 69.8 °F 94% 30.01 in 7.0 mi Calm Calm - N/A   Overcast
5:35 PM 71.6 °F 69.8 °F 94% 30.01 in 7.0 mi Calm Calm - N/A   Overcast
5:55 PM 71.6 °F 69.8 °F 94% 30.01 in 7.0 mi Calm Calm - N/A   Overcast
6:15 PM 71.6 °F 69.8 °F 94% 30.01 in 5.0 mi Calm Calm - N/A   Overcast
6:35 PM 71.6 °F 69.8 °F 94% 30.01 in 7.0 mi Calm Calm - N/A   Overcast
7:15 PM 69.8 °F 69.8 °F 100% 30.00 in 7.0 mi Calm Calm - N/A   Mostly Cloudy
7:35 PM 69.8 °F 69.8 °F 100% 30.00 in 10.0 mi Calm Calm - N/A   Overcast
7:55 PM 69.8 °F 68.0 °F 94% 30.00 in 7.0 mi Calm Calm - N/A   Overcast
8:15 PM 69.8 °F 68.0 °F 94% 30.00 in 7.0 mi Calm Calm - N/A   Overcast
8:35 PM 69.8 °F 68.0 °F 94% 30.01 in 7.0 mi Calm Calm - N/A   Overcast
8:55 PM 69.8 °F 68.0 °F 94% 30.01 in 7.0 mi Calm Calm - N/A   Overcast
9:15 PM 69.8 °F 68.0 °F 94% 30.01 in 7.0 mi Calm Calm - N/A   Overcast
9:35 PM 69.8 °F 68.0 °F 94% 30.02 in 10.0 mi Calm Calm - N/A   Overcast
9:55 PM 69.8 °F 68.0 °F 94% 30.02 in 7.0 mi Calm Calm - N/A   Overcast
10:15 PM 69.8 °F 68.0 °F 94% 30.02 in 7.0 mi Calm Calm - N/A   Overcast
10:35 PM 69.8 °F 68.0 °F 94% 30.02 in 7.0 mi Calm Calm - N/A   Overcast
10:55 PM 69.8 °F 68.0 °F 94% 30.02 in 7.0 mi Calm Calm - N/A   Overcast
11:15 PM 69.8 °F 68.0 °F 94% 30.02 in 7.0 mi Calm Calm - N/A   Overcast
11:35 PM 69.8 °F 68.0 °F 94% 30.01 in 10.0 mi Calm Calm - N/A   Overcast
11:55 PM 69.8 °F 68.0 °F 94% 30.00 in 7.0 mi Calm Calm - N/A   Overcast